Regional Weather Roundup
Issued by NWS

Home | Current Version | Previous Version | Text Only | Print | Product List | Glossary On
Versions: 1 2 3 4 5 6 7 8 9 10 11 12 13 14 15 16 17 18 19 20 21 22 23 24 25 26 27 28 29 30 31 32 33 34 35 36 37 38 39 40 41 42 43 44 45 46 47 48 49 50
000
ASUS44 KOUN 240110
RWROK

WEATHER ROUNDUP FOR OKLAHOMA
NATIONAL WEATHER SERVICE NORMAN OK
800 PM CDT WED AUG 23 2017

NOTE: "FAIR" INDICATES FEW OR NO CLOUDS BELOW 12,000 FEET WITH NO
      SIGNIFICANT WEATHER AND/OR OBSTRUCTIONS TO VISIBILITY.

OKZ001>007-009>012-014-015-017-240200-
NORTHWEST OKLAHOMA AND THE PANHANDLE

CITY           SKY/WX    TMP DP  RH WIND       PRES   REMARKS
GAGE           CLEAR     78  60  53 E8        30.03S
GUYMON         CLOUDY    77  67  71 SE9       30.05S
ENID/WOODRING  PTCLDY    77  63  61 NE8       29.99S
$$

OKZ016-021>023-033>039-044-045-240200-
SOUTHWEST OKLAHOMA

CITY           SKY/WX    TMP DP  RH WIND       PRES   REMARKS
LAWTON/REGL    CLEAR     81  71  71 NE8       29.97S
LAWTON/FT SILL PTCLDY    80  73  78 NE7       29.96S
FREDERICK      CLEAR     81  69  67 NE9       29.94S
CLINTON        CLEAR     76  65  68 E6        30.03F
HOBART         CLEAR     79  68  69 NE7       30.01S
ALTUS AFB      CLEAR     80  67  64 NE6       29.98S
$$

OKZ018>020-024>031-240200-
CENTRAL OKLAHOMA

CITY           SKY/WX    TMP DP  RH WIND       PRES   REMARKS
OKLAHOMA CITY  PTCLDY    79  63  57 NE10      29.99S
OKC/WILEY POST CLEAR     80  64  58 E12       29.99S
OKC/TINKER AFB CLEAR     78  64  62 NE8       29.99S
STILLWATER     CLEAR     76  58  53 E8        30.00S
GUTHRIE        CLEAR     78  59  51 E7        29.99S
$$

OKZ008-013-054>072-240200-
NORTHEAST OKLAHOMA

CITY           SKY/WX    TMP DP  RH WIND       PRES   REMARKS
TULSA          CLEAR     79  58  48 NE10      29.98R
TULSA/JONES    CLEAR     78  56  46 N8        29.99R
PONCA CITY     CLEAR     77  53  43 E9        30.00F
BARTLESVILLE   CLEAR     70  60  70 CALM      30.02S
MUSKOGEE       CLEAR     79  69  71 N3        29.98R
$$

OKZ032-040>043-046>053-073>077-240200-
SOUTH CENTRAL/SOUTHEAST OKLAHOMA

CITY           SKY/WX    TMP DP  RH WIND       PRES   REMARKS
ARDMORE/DWNTWN CLEAR     79  70  73 CALM      29.96R
MCALESTER      CLEAR     79  74  84 CALM      29.97R
$$




USA.gov is the U.S. government's official web portal to all federal, state and local government web resources and services.